Hutchinson, MN

3:38 AM CDT on July 28, 2017 (GMT -0500)
Hutchinson Municipal-Butler

Weather History for KHCD - November, 2013

Change the Weather History Date:

Monday, November 25, 2013

  Actual Average Record
Temperature  
Mean Temperature 33 °F -  
Max Temperature 39 °F 35 °F 61 °F (1960)
Min Temperature 27 °F 18 °F -14 °F (1996)
Degree Days  
Heating Degree Days 32    
Moisture  
Dew Point 24 °F    
Average Humidity 69    
Maximum Humidity 88    
Minimum Humidity 56    
Precipitation  
Precipitation 0.00 in - - ()
Sea Level Pressure  
Sea Level Pressure 30.00 in    
Wind  
Wind Speed 14 mph (West)    
Max Wind Speed 23 mph    
Max Gust Speed 28 mph    
Visibility 10 miles    
Events      
Averages and records for this station are not official NWS values.
T = Trace of Precipitation, MM = Missing Value Source: NWS Daily Summary

Daily Weather History Graph

Daily Weather History Graph

Search for Another Location

Airport or City:

Trip Planner

Search our weather history database for the weather conditions in past years. The results will help you decide how hot, cold, wet, or windy it might be!

Date:

Astronomy

Nov. 25, 2013 Rise Set
Actual Time 7:28 AM CST 4:40 PM CST
Civil Twilight 6:55 AM CST 5:13 PM CST
Nautical Twilight 6:19 AM CST 5:49 PM CST
Astronomical Twilight 5:44 AM CST 6:24 PM CST
Moon No Moon Rise 12:35 PM CST (11/25)
Length of Visible Light 10h 17m
Length of Day
9h 12m
Waning Gibbous, 51% of the Moon is Illuminated
Nov 25
Waning Gibbous
Nov 25
Last Quarter
Dec 2
New
Dec 9
First Quarter
Dec 17
Full

Hourly Weather History & Observations

Time (CST) Temp. Windchill Dew Point Humidity Pressure Visibility Wind Dir Wind Speed Gust Speed Precip Events Conditions
12:13 AM 30.2 °F 20.2 °F 18.3 °F 61% 29.95 in 10.0 mi SSW 12.7 mph 19.6 mph N/A   Clear
12:34 AM 30.2 °F 19.3 °F 18.5 °F 62% 29.94 in 10.0 mi SSW 15.0 mph 26.5 mph N/A   Clear
12:53 AM 30.2 °F 19.3 °F 18.9 °F 63% 29.94 in 10.0 mi SSW 15.0 mph 23.0 mph N/A   Clear
1:13 AM 30.6 °F 20.7 °F 19.4 °F 63% 29.93 in 10.0 mi SSW 12.7 mph 26.5 mph N/A   Scattered Clouds
1:34 AM 30.7 °F 18.8 °F 19.8 °F 64% 29.92 in 10.0 mi SSW 18.4 mph 25.3 mph N/A   Overcast
1:53 AM 31.1 °F 20.1 °F 20.3 °F 64% 29.91 in 10.0 mi SSW 16.1 mph 23.0 mph N/A   Overcast
2:13 AM 31.8 °F 20.6 °F 20.8 °F 64% 29.91 in 10.0 mi SSW 17.3 mph 26.5 mph N/A   Overcast
2:34 AM 32.0 °F 21.2 °F 21.7 °F 66% 29.91 in 10.0 mi SW 16.1 mph 23.0 mph N/A   Overcast
2:53 AM 32.0 °F 21.6 °F 22.3 °F 67% 29.91 in 10.0 mi SW 15.0 mph 21.9 mph N/A   Scattered Clouds
3:13 AM 31.8 °F 23.3 °F 22.6 °F 69% 29.90 in 10.0 mi SW 10.4 mph 17.3 mph N/A   Clear
3:34 AM 31.6 °F 22.6 °F 23.0 °F 70% 29.90 in 10.0 mi SW 11.5 mph - N/A   Clear
3:53 AM 31.5 °F 23.5 °F 23.2 °F 71% 29.90 in 10.0 mi SW 9.2 mph - N/A   Clear
4:14 AM 31.8 °F 22.8 °F 24.4 °F 74% 29.90 in 10.0 mi SW 11.5 mph 18.4 mph N/A   Clear
4:33 AM 32.0 °F 23.6 °F 25.5 °F 77% 29.90 in 10.0 mi SW 10.4 mph - N/A   Clear
4:53 AM 32.2 °F 24.4 °F 25.9 °F 78% 29.90 in 10.0 mi SW 9.2 mph 17.3 mph N/A   Clear
5:14 AM 32.0 °F 23.0 °F 26.2 °F 79% 29.90 in 10.0 mi WSW 11.5 mph 16.1 mph N/A   Clear
5:33 AM 32.0 °F 23.0 °F 26.4 °F 80% 29.91 in 10.0 mi WSW 11.5 mph - N/A   Clear
5:53 AM 31.6 °F 22.1 °F 26.2 °F 80% 29.92 in 10.0 mi WSW 12.7 mph - N/A   Clear
6:14 AM 30.9 °F 23.5 °F 25.9 °F 82% 29.92 in 10.0 mi WSW 8.1 mph - N/A   Clear
6:34 AM 30.0 °F 21.1 °F 25.5 °F 83% 29.92 in 10.0 mi WSW 10.4 mph - N/A   Clear
6:53 AM 29.5 °F 20.4 °F 25.5 °F 85% 29.93 in 10.0 mi West 10.4 mph - N/A   Clear
7:14 AM 28.4 °F 19.1 °F 25.0 °F 87% 29.94 in 10.0 mi West 10.4 mph - N/A   Clear
7:33 AM 28.4 °F 19.1 °F 25.2 °F 88% 29.94 in 10.0 mi West 10.4 mph - N/A   Clear
7:54 AM 27.9 °F 18.4 °F 24.8 °F 88% 29.95 in 10.0 mi West 10.4 mph - N/A   Clear
8:13 AM 28.9 °F 20.4 °F 25.7 °F 88% 29.95 in 10.0 mi West 9.2 mph - N/A   Clear
8:33 AM 30.0 °F 21.1 °F 26.4 °F 86% 29.96 in 10.0 mi West 10.4 mph - N/A   Clear
8:54 AM 31.8 °F 21.8 °F 27.1 °F 83% 29.97 in 10.0 mi WNW 13.8 mph - N/A   Clear
9:13 AM 32.4 °F 22.1 °F 27.3 °F 82% 29.98 in 10.0 mi WNW 15.0 mph 18.4 mph N/A   Clear
9:34 AM 33.8 °F 24.3 °F 27.5 °F 78% 29.99 in 10.0 mi WNW 13.8 mph - N/A   Clear
9:53 AM 36.5 °F 27.4 °F 28.6 °F 73% 29.99 in 10.0 mi WNW 15.0 mph 20.7 mph N/A   Mostly Cloudy
10:13 AM 35.2 °F 26.2 °F 27.3 °F 73% 29.99 in 10.0 mi WNW 13.8 mph 21.9 mph N/A   Mostly Cloudy
10:33 AM 37.6 °F 28.4 °F 27.9 °F 68% 29.99 in 10.0 mi WNW 16.1 mph 24.2 mph N/A   Mostly Cloudy
10:53 AM 35.8 °F 26.1 °F 27.3 °F 71% 29.99 in 10.0 mi WNW 16.1 mph - N/A   Overcast
11:13 AM 36.5 °F 27.4 °F 27.7 °F 70% 29.99 in 10.0 mi WNW 15.0 mph 20.7 mph N/A   Overcast
11:34 AM 36.5 °F 27.4 °F 27.5 °F 70% 29.99 in 10.0 mi WNW 15.0 mph 19.6 mph N/A   Overcast
11:54 AM 36.5 °F 27.8 °F 27.5 °F 70% 29.99 in 10.0 mi WNW 13.8 mph 17.3 mph N/A   Overcast
12:13 PM 37.0 °F 27.4 °F 27.3 °F 68% 29.99 in 10.0 mi West 17.3 mph 20.7 mph N/A   Overcast
12:33 PM 37.6 °F 28.1 °F 27.3 °F 66% 29.99 in 10.0 mi West 17.3 mph 21.9 mph N/A   Overcast
12:53 PM 38.5 °F 29.9 °F 27.1 °F 64% 30.00 in 10.0 mi WNW 15.0 mph 21.9 mph N/A   Overcast
1:14 PM 38.7 °F 29.8 °F 26.4 °F 61% 30.00 in 10.0 mi WNW 16.1 mph 20.7 mph N/A   Overcast
1:34 PM 39.2 °F 30.2 °F 26.1 °F 59% 30.00 in 10.0 mi WNW 17.3 mph 21.9 mph N/A   Overcast
1:53 PM 38.3 °F 29.7 °F 25.3 °F 60% 30.00 in 10.0 mi West 15.0 mph 20.7 mph N/A   Overcast
2:14 PM 38.5 °F 29.6 °F 25.0 °F 58% 30.00 in 10.0 mi West 16.1 mph 24.2 mph N/A   Overcast
2:34 PM 38.3 °F 29.3 °F 24.4 °F 57% 30.01 in 10.0 mi WNW 16.1 mph 20.7 mph N/A   Overcast
2:53 PM 38.3 °F 29.0 °F 24.4 °F 57% 30.01 in 10.0 mi WNW 17.3 mph 21.9 mph N/A   Overcast
3:13 PM 38.3 °F 29.7 °F 23.9 °F 56% 30.02 in 10.0 mi WNW 15.0 mph - N/A   Overcast
3:33 PM 37.6 °F 28.8 °F 23.4 °F 57% 30.03 in 10.0 mi West 15.0 mph 25.3 mph N/A   Overcast
3:54 PM 37.4 °F 28.5 °F 23.5 °F 57% 30.04 in 10.0 mi WNW 15.0 mph 19.6 mph N/A   Overcast
4:14 PM 37.0 °F 29.8 °F 23.7 °F 59% 30.04 in 10.0 mi West 10.4 mph - N/A   Overcast
4:33 PM 36.7 °F 28.9 °F 24.8 °F 62% 30.05 in 10.0 mi West 11.5 mph - N/A   Overcast
4:53 PM 36.5 °F 28.7 °F 24.8 °F 63% 30.05 in 10.0 mi West 11.5 mph - N/A   Overcast
5:14 PM 36.5 °F 28.2 °F 24.8 °F 63% 30.05 in 10.0 mi West 12.7 mph - N/A   Overcast
5:33 PM 36.1 °F 29.3 °F 25.0 °F 64% 30.05 in 10.0 mi West 9.2 mph - N/A   Overcast
5:53 PM 35.8 °F 28.3 °F 24.8 °F 64% 30.06 in 10.0 mi West 10.4 mph - N/A   Overcast
6:13 PM 35.4 °F 27.8 °F 24.8 °F 65% 30.06 in 10.0 mi West 10.4 mph - N/A   Overcast
6:34 PM 36.0 °F 27.5 °F 25.3 °F 65% 30.07 in 10.0 mi West 12.7 mph - N/A   Overcast
6:53 PM 35.8 °F 26.1 °F 25.3 °F 66% 30.07 in 10.0 mi WNW 16.1 mph 20.7 mph N/A   Overcast
7:14 PM 35.6 °F 27.5 °F 25.3 °F 66% 30.07 in 10.0 mi WNW 11.5 mph 19.6 mph N/A   Overcast
7:33 PM 35.2 °F 26.6 °F 25.3 °F 67% 30.07 in 10.0 mi WNW 12.7 mph - N/A   Overcast
7:53 PM 34.9 °F 24.9 °F 24.8 °F 67% 30.08 in 10.0 mi WNW 16.1 mph 20.7 mph N/A   Overcast
8:14 PM 34.7 °F 25.5 °F 23.9 °F 65% 30.08 in 10.0 mi WNW 13.8 mph - N/A   Overcast
8:33 PM 34.2 °F 24.0 °F 23.9 °F 66% 30.08 in 10.0 mi WNW 16.1 mph - N/A   Overcast
8:54 PM 33.3 °F 22.5 °F 23.9 °F 69% 30.08 in 10.0 mi NW 17.3 mph - N/A   Overcast
9:13 PM 32.9 °F 21.6 °F 23.9 °F 69% 30.08 in 10.0 mi NW 18.4 mph 24.2 mph N/A   Overcast
9:33 PM 32.2 °F 21.1 °F 23.2 °F 69% 30.08 in 10.0 mi WNW 17.3 mph 23.0 mph N/A   Overcast
9:54 PM 32.0 °F 21.2 °F 22.8 °F 69% 30.08 in 10.0 mi NW 16.1 mph 23.0 mph N/A   Overcast
10:13 PM 31.6 °F 18.7 °F 22.1 °F 68% 30.08 in 10.0 mi NW 23.0 mph 26.5 mph N/A   Overcast
10:33 PM 31.1 °F 18.6 °F 21.6 °F 68% 30.09 in 10.0 mi NW 20.7 mph 26.5 mph N/A   Overcast
10:53 PM 30.7 °F 18.8 °F 21.0 °F 67% 30.10 in 10.0 mi WNW 18.4 mph 27.6 mph N/A   Overcast
11:13 PM 30.2 °F 18.9 °F 21.2 °F 69% 30.10 in 10.0 mi WNW 16.1 mph 23.0 mph N/A   Overcast
11:33 PM 30.2 °F 19.3 °F 21.2 °F 69% 30.10 in 10.0 mi WNW 15.0 mph 23.0 mph N/A   Overcast
11:53 PM 29.8 °F 19.3 °F 21.2 °F 70% 30.11 in 10.0 mi WNW 13.8 mph 18.4 mph N/A   Overcast